Theta_e
302 298 296 296 299 298 299 300 300 298 298 296 297 295 295 295 296 295 295 296 295 296 296 298 299 298 300 298 296 294 293 293 293 292 292 292 292 292 292 292 292 292 291 293 293 293 293 294 294 295 296 296 296 295 296 298 298 298 299 300 299 301 302 303 302 302 301 299 297 296 295 293 293 293 294 293 294 294 294 295 295 296 296 298 298 300
299 297 297 300 300 300 300 300 297 296 296 296 296 295 295 296 294 297 296 295 296 295 296 295 295 297 299 297 294 293 293 293 293 293 292 292 292 292 292 291 292 291 293 292 293 292 293 293 294 294 295 295 295 295 296 296 297 298 299 299 299 299 299 299 300 299 297 296 295 294 293 292 292 292 292 291 292 292 293 294 294 294 295 295 295 296
296 295 299 301 298 298 297 297 296 297 295 295 295 295 293 295 296 296 294 294 295 294 295 295 294 296 299 296 293 293 293 294 293 293 293 292 291 291 291 291 291 291 291 292 291 292 292 293 293 294 294 294 294 294 295 296 297 297 298 298 299 299 298 298 298 297 295 295 295 293 292 291 290 292 292 292 292 292 292 292 293 293 293 294 294 294
293 296 300 298 298 296 294 295 295 294 295 295 294 292 292 296 293 294 294 293 293 294 295 294 293 296 299 295 293 292 292 291 291 290 291 291 291 291 291 291 291 291 291 291 291 291 291 292 292 293 292 293 293 294 294 295 295 296 297 297 297 297 296 295 294 293 293 293 293 293 292 292 292 291 292 292 292 292 292 291 292 292 293 293 293 293
297 297 295 297 297 297 295 293 294 293 293 295 295 294 294 294 294 295 295 293 293 293 291 293 294 295 298 297 293 290 290 289 289 289 289 290 291 291 291 290 291 291 291 291 291 291 291 291 291 291 291 292 292 292 293 293 293 294 295 296 296 296 295 295 294 293 293 292 292 292 293 293 292 293 292 291 290 290 290 290 290 290 292 292 292 292
298 296 296 295 296 296 296 292 294 296 293 294 295 295 296 296 295 294 293 293 293 293 294 294 290 292 295 294 296 291 289 288 289 289 289 290 290 290 290 291 290 290 290 291 290 290 290 290 290 291 291 291 291 291 291 292 293 294 294 295 295 295 295 294 295 295 295 294 293 293 292 290 290 289 289 288 288 288 288 288 290 290 291 291 291 291
297 295 298 295 295 295 296 295 296 297 295 293 295 297 296 295 295 295 293 292 290 289 292 291 289 289 296 295 295 291 290 289 288 289 290 290 290 290 290 291 290 290 289 290 290 290 290 290 290 290 290 290 290 289 290 291 291 292 293 293 293 293 293 293 293 293 293 293 293 292 292 291 289 288 288 289 289 289 289 290 289 289 290 290 290 290
295 293 294 297 296 295 294 293 296 295 295 293 294 293 296 294 293 293 293 293 293 293 293 289 292 288 288 295 293 291 290 290 289 289 289 290 290 290 291 291 291 290 290 290 290 289 289 289 290 289 289 289 288 289 290 290 290 291 291 291 291 291 291 292 292 292 293 292 292 291 291 290 289 288 288 289 289 290 290 289 289 289 289 289 290 289
296 293 295 295 295 294 294 297 297 297 296 295 291 294 294 295 295 295 294 292 292 290 289 290 293 287 288 293 289 291 290 291 290 290 289 290 290 290 291 291 291 290 290 290 290 289 289 289 288 288 288 288 288 289 289 289 289 290 290 290 290 290 290 291 292 292 292 292 291 291 290 289 289 289 289 289 290 289 289 289 289 289 289 289 289 289
295 296 297 299 296 294 296 292 296 297 296 292 292 293 293 293 293 294 292 292 290 288 285 291 291 287 288 294 294 291 290 292 295 292 291 291 290 291 291 291 290 290 290 289 290 289 289 288 288 288 288 288 288 288 288 289 289 290 290 289 289 289 290 290 291 291 291 292 291 291 290 289 289 289 289 290 289 289 289 288 288 288 288 288 288 288
293 293 294 297 296 298 292 290 291 294 293 293 295 295 293 292 292 291 292 291 288 283 286 293 292 290 286 292 294 294 295 297 295 292 292 292 291 291 291 291 290 289 289 289 289 289 289 288 288 287 287 287 287 288 288 289 289 290 289 289 289 289 289 290 290 291 291 291 291 291 291 290 289 290 289 289 288 288 288 287 288 287 288 288 288 288
294 294 295 295 291 291 295 291 291 290 292 295 294 293 293 290 291 290 288 289 284 284 287 286 289 291 283 290 295 298 292 294 296 293 291 290 290 290 291 291 290 290 289 289 289 288 288 287 287 287 286 287 287 287 288 288 289 289 289 289 288 288 289 290 290 290 290 291 291 291 290 290 290 290 289 288 288 288 287 288 287 287 287 287 288 287
291 293 295 294 293 295 294 293 291 292 291 293 294 293 289 287 285 283 285 281 282 284 284 286 287 285 286 293 297 296 296 294 294 295 294 291 291 291 291 290 290 290 290 289 288 288 287 287 286 286 286 286 286 287 287 288 289 289 289 289 288 288 289 289 290 290 290 290 290 290 289 289 289 289 289 288 288 288 287 287 287 287 286 286 286 286
293 294 293 295 293 294 297 292 289 289 290 291 291 290 288 284 282 280 283 283 282 285 284 285 288 284 291 293 297 297 294 292 291 291 293 293 292 291 291 291 290 290 289 289 288 288 287 287 287 287 286 287 287 287 287 287 288 289 289 289 288 288 289 289 289 289 289 289 289 289 289 289 289 288 288 288 287 287 287 287 286 286 285 285 285 285
288 289 292 292 292 297 296 298 296 295 291 292 297 294 290 289 284 280 283 281 284 284 282 285 283 285 285 291 288 288 287 289 288 289 290 293 293 292 292 291 290 289 289 289 288 288 288 288 287 287 287 287 287 287 287 287 287 288 288 288 287 287 288 288 288 289 288 288 288 289 289 289 289 288 287 287 287 287 286 286 286 286 285 285 285 284
291 293 294 297 293 296 295 297 298 295 292 292 293 295 290 289 293 286 284 285 283 283 281 281 284 290 291 289 289 287 288 287 288 288 289 290 291 291 290 290 290 289 289 289 288 288 288 287 287 287 287 287 287 286 287 287 287 288 288 288 288 287 287 288 288 288 288 288 288 288 288 288 287 287 287 286 286 286 286 285 285 284 284 285 284 284
289 289 291 293 292 294 295 295 296 298 289 290 290 287 291 294 293 283 281 280 280 282 283 287 286 289 293 292 288 288 287 288 287 288 288 289 290 290 290 290 290 290 289 289 288 288 288 287 287 287 287 287 286 286 287 287 287 288 288 287 287 287 287 287 288 287 287 287 287 287 287 287 287 287 286 285 285 285 285 285 285 284 284 284 284 284
290 291 289 292 289 290 289 292 295 293 295 291 286 292 292 295 295 290 285 282 283 281 283 285 284 287 286 286 289 289 288 289 288 287 288 288 289 289 290 290 290 290 290 289 289 289 288 287 287 287 287 287 286 286 287 286 287 288 288 287 287 287 286 287 287 287 287 286 286 286 286 286 286 286 285 285 285 285 285 285 284 284 284 283 283 283
297 289 289 289 290 291 290 294 294 294 293 293 292 299 291 286 285 289 286 280 279 279 282 283 285 287 289 290 288 289 289 290 289 288 287 287 287 289 290 291 291 290 289 289 288 288 288 287 287 287 286 287 287 287 287 287 287 287 288 287 287 287 287 287 287 287 287 287 287 286 286 285 285 285 285 285 285 285 284 284 284 283 283 283 283 282
295 290 288 289 290 291 291 293 287 289 292 291 292 291 294 291 290 285 287 286 287 283 280 282 280 283 290 293 293 294 293 293 291 287 287 289 289 289 290 291 290 290 289 289 289 289 288 288 287 287 287 286 286 286 287 287 287 286 287 287 287 287 287 286 286 286 286 286 286 285 285 285 285 285 284 284 284 284 283 283 283 283 282 282 282 282
292 293 288 287 290 291 286 290 289 290 286 287 290 289 290 289 290 291 289 286 286 283 282 283 281 285 291 295 296 296 296 295 291 289 290 290 291 291 291 291 291 291 290 290 289 289 288 287 287 287 287 287 287 287 287 286 286 286 287 287 287 286 286 286 286 286 286 285 285 284 284 284 284 284 284 283 283 283 283 282 282 282 282 282 281 281
289 289 288 286 286 286 291 293 291 293 294 291 291 289 291 287 285 283 283 287 284 285 282 281 281 287 292 289 294 295 295 295 293 292 292 292 292 292 291 292 292 291 290 290 290 289 288 288 287 287 287 287 286 286 286 286 287 286 286 287 286 286 286 286 286 286 285 285 285 284 284 284 283 283 283 283 282 282 282 281 281 281 280 280 280 280
295 291 289 284 287 288 290 291 290 289 291 293 292 292 294 292 291 287 283 283 283 284 283 284 280 286 291 290 290 291 291 291 293 294 293 293 293 292 292 292 292 292 291 290 289 288 288 288 288 287 286 286 286 286 286 286 286 286 286 286 287 286 286 286 286 286 285 285 284 284 283 283 282 282 282 282 281 280 280 280 279 279 279 279 279 279
292 288 287 287 288 290 291 292 291 291 292 290 291 291 290 289 291 291 290 287 286 285 283 283 281 287 290 290 289 289 288 288 289 291 293 293 292 291 291 291 290 291 291 290 289 289 289 288 287 286 286 286 286 286 286 286 286 287 286 286 286 286 286 286 286 285 285 284 284 283 282 282 282 282 282 281 280 279 279 279 278 278 278 278 278 277
289 289 290 285 284 286 287 290 290 291 290 289 289 291 290 293 294 289 287 288 286 286 285 284 280 286 289 289 290 287 287 286 288 289 290 292 291 291 290 290 290 290 290 288 288 288 288 287 286 286 286 286 286 286 286 286 286 286 286 286 286 286 286 286 286 285 284 284 283 282 282 282 282 281 281 280 280 278 278 278 278 277 276 277 277 276
291 289 289 284 281 279 279 280 282 284 285 289 288 289 290 291 290 287 285 286 283 286 286 285 286 291 291 290 291 290 288 289 289 290 289 290 291 290 289 289 289 289 289 288 288 288 287 287 287 286 286 286 286 286 286 286 286 286 286 286 286 286 285 285 285 284 284 284 283 282 282 281 281 281 280 279 278 278 277 277 276 276 276 276 275 275
289 289 290 290 288 287 289 289 292 293 289 285 287 287 289 290 290 290 289 286 284 286 285 288 289 289 287 290 291 292 287 291 293 290 288 289 288 289 289 288 288 288 289 288 288 288 288 287 286 286 286 286 286 286 286 286 286 286 286 285 285 285 284 284 284 284 284 283 283 282 282 281 281 280 279 279 278 277 276 276 275 275 275 275 274 274
288 288 289 289 289 290 288 289 291 294 289 290 288 287 289 288 288 287 287 285 289 286 282 289 291 288 289 291 293 293 290 290 292 291 290 290 289 288 288 288 288 288 288 289 288 288 287 287 287 286 286 286 286 286 286 286 286 286 285 284 284 284 284 285 284 284 283 283 283 282 282 281 281 280 279 278 277 276 275 275 274 274 274 273 273 273
288 287 290 289 288 291 290 290 291 292 293 292 291 290 288 289 287 285 286 291 290 286 285 289 290 288 291 291 294 293 293 291 291 292 292 290 289 288 288 287 287 286 287 288 288 288 287 287 287 286 286 286 286 286 286 286 286 285 285 285 285 284 284 285 284 283 283 283 282 282 282 280 280 279 278 276 276 275 274 274 273 273 273 272 272 272
290 288 289 289 288 289 290 288 290 290 289 289 290 291 291 289 288 288 288 290 290 288 291 291 290 291 294 294 293 293 294 294 293 291 289 288 289 288 288 287 287 287 287 287 288 288 288 288 287 287 286 286 286 286 285 285 285 285 285 284 285 284 284 284 284 283 283 283 283 282 281 279 278 277 276 275 274 274 273 273 272 272 272 271 271 271
291 288 291 289 287 287 289 287 286 287 287 286 288 290 290 289 288 288 289 290 289 289 291 289 287 288 295 296 295 292 291 290 289 289 289 290 289 288 288 287 288 288 288 288 288 288 288 288 287 287 286 286 286 286 286 286 286 286 286 285 285 285 285 284 284 283 283 283 282 281 280 278 277 277 275 275 274 273 272 272 271 271 270 270 269 269
290 287 287 288 285 285 284 285 285 285 285 285 286 288 286 286 284 286 286 289 287 286 288 287 285 288 292 292 291 289 290 290 290 290 289 289 289 289 288 289 289 289 288 288 288 288 288 287 287 287 286 286 286 286 286 286 286 286 286 287 286 286 285 284 284 283 283 283 281 280 279 278 276 275 274 273 272 271 271 270 269 269 269 269 269 269
288 287 285 286 283 284 280 284 285 283 284 282 284 287 289 288 289 289 289 290 290 290 286 284 286 293 292 290 290 288 289 291 292 291 290 290 290 289 289 290 290 290 289 289 288 288 288 288 288 288 287 287 287 287 287 287 287 286 287 287 287 286 284 284 284 284 283 282 280 279 278 277 275 274 273 272 271 270 269 268 268 268 268 268 269 268
287 287 287 288 283 281 277 282 283 282 276 280 286 292 293 289 290 287 287 288 290 291 289 292 292 291 289 290 291 290 289 291 292 292 293 293 290 289 290 290 290 290 290 290 289 289 289 289 288 288 288 287 287 287 288 288 287 288 288 288 287 285 284 284 283 283 283 281 279 278 277 276 274 273 272 271 270 269 268 268 268 269 269 268 268 268
285 286 287 286 283 277 279 280 280 275 279 283 281 283 286 294 293 290 290 292 292 292 290 287 286 287 289 290 291 293 293 290 288 290 290 290 292 291 290 289 289 290 289 289 289 289 289 289 288 288 288 288 288 288 288 287 288 288 287 286 284 284 283 283 283 282 281 279 278 277 275 274 273 272 271 269 269 268 268 268 268 267 268 268 268 268
285 286 285 282 281 279 277 280 273 277 283 283 282 282 285 289 291 291 289 291 292 292 291 289 290 289 289 289 287 286 288 285 286 285 286 287 289 291 289 289 289 289 288 289 289 290 289 289 289 288 288 289 288 287 287 287 287 287 286 285 283 282 282 282 282 281 279 278 277 275 275 274 273 271 270 269 268 268 268 268 267 267 268 267 267 267
287 286 286 282 284 277 279 279 280 284 284 285 281 282 286 287 286 286 283 287 291 290 289 289 290 288 286 285 283 283 283 285 286 288 287 286 286 289 290 290 290 289 290 290 290 289 290 290 289 289 288 287 287 286 286 286 286 285 283 282 282 281 281 281 280 279 278 277 276 274 274 273 272 271 270 269 268 267 268 268 267 267 267 266 267 267
285 285 286 283 281 281 278 276 277 279 276 283 286 286 288 285 290 288 286 285 283 286 288 289 288 288 285 283 283 282 284 285 285 287 288 285 286 286 288 287 287 287 288 287 287 287 287 287 287 287 287 286 286 286 285 285 284 283 281 280 280 279 279 279 279 279 277 277 276 274 274 273 272 270 269 268 267 267 268 268 268 266 266 266 266 266
285 285 285 285 282 280 279 277 278 276 280 285 285 281 282 282 286 286 284 280 285 281 287 288 288 287 285 283 282 283 284 283 284 287 287 285 284 286 286 286 286 286 286 287 287 286 285 284 285 284 284 284 283 284 284 283 282 281 280 279 279 278 278 278 279 278 277 277 275 274 273 272 271 270 269 268 268 267 267 266 266 266 265 265 265 264
283 283 284 281 281 282 281 279 277 282 282 283 280 280 282 282 286 287 276 278 284 281 285 287 287 287 284 284 283 284 284 282 284 287 287 285 285 285 286 286 285 285 285 285 284 285 284 283 282 281 282 282 283 282 281 281 281 280 280 279 278 277 277 278 279 279 278 277 275 273 272 271 269 269 268 267 267 266 266 266 265 264 264 264 265 264
280 280 282 279 282 282 282 280 282 282 285 280 281 282 281 281 285 279 275 281 282 281 283 287 287 287 284 282 284 283 286 287 285 284 284 284 283 283 283 283 284 285 285 284 283 283 282 282 283 283 283 283 282 280 280 280 280 279 279 278 277 277 278 279 280 279 277 275 273 271 270 270 268 267 267 267 266 265 264 265 265 264 263 262 263 263
278 279 279 282 280 280 282 279 280 283 286 281 280 281 281 283 276 277 284 283 283 281 282 285 285 284 284 283 284 286 286 284 282 283 283 283 285 284 283 282 281 280 280 281 281 282 282 281 281 282 281 281 280 279 279 279 279 279 279 277 276 277 280 280 279 277 275 273 271 270 268 267 267 266 265 264 264 264 263 263 263 263 262 263 263 261
280 278 277 279 281 279 279 279 277 275 283 281 281 281 281 281 283 283 281 281 282 282 282 282 283 283 284 283 284 285 283 282 282 283 283 283 283 283 283 282 281 281 281 280 279 280 281 280 280 280 281 280 278 278 278 278 278 279 278 276 277 279 279 279 277 275 273 272 270 268 266 266 264 264 263 262 263 263 263 262 261 261 261 261 260 260
285 278 278 281 285 277 278 275 277 284 281 283 284 281 283 285 286 283 283 281 281 280 282 282 283 283 284 284 284 283 282 282 282 282 281 281 281 281 281 281 281 281 281 281 281 280 280 281 281 280 281 279 277 277 277 277 277 278 276 277 279 279 277 276 274 273 271 269 268 266 265 263 263 262 262 262 262 262 262 262 261 260 261 261 261 262
285 282 283 281 285 281 281 283 283 282 283 285 285 283 285 284 283 283 285 284 282 281 282 284 283 283 283 283 283 283 282 282 282 283 282 282 282 281 281 281 281 281 281 280 280 279 279 280 280 280 280 278 275 275 275 276 277 276 275 278 279 276 274 272 271 269 269 268 266 265 264 262 262 261 261 261 261 261 262 260 259 262 262 260 262 262
280 281 282 282 281 281 280 282 281 280 282 284 283 283 283 282 280 281 282 282 283 282 283 284 284 283 282 282 282 281 282 283 282 281 281 282 282 282 281 280 279 279 279 279 278 277 277 279 279 278 279 277 275 274 274 275 277 276 277 279 277 275 272 270 268 268 268 267 265 264 262 261 261 260 260 260 261 262 263 263 261 263 264 262 263 262
279 279 280 281 282 280 278 279 279 280 281 282 283 282 281 280 281 280 281 283 283 282 282 283 283 283 282 282 282 283 282 282 281 281 281 281 281 280 279 280 280 279 278 277 279 277 276 276 277 277 277 277 276 274 273 273 275 277 279 276 275 272 270 268 268 268 268 266 265 263 261 261 262 261 259 259 261 262 262 263 263 263 263 263 263 262
279 282 279 280 278 280 279 278 278 278 279 281 283 282 282 282 280 280 281 281 281 281 282 282 281 281 282 280 282 282 282 282 280 280 280 280 280 280 279 279 280 280 279 280 279 277 277 276 277 277 277 277 278 275 273 273 273 274 275 273 272 269 268 267 268 268 267 266 264 263 261 262 261 261 261 260 260 261 261 261 262 262 263 263 263 263
282 282 275 279 277 277 276 278 278 279 280 281 280 282 284 284 283 281 280 280 280 280 280 280 281 281 281 282 281 281 281 281 281 281 281 280 279 279 279 279 279 280 280 278 277 276 277 277 276 277 277 278 279 277 273 272 273 273 273 271 269 268 267 268 267 268 267 265 263 263 262 263 262 262 263 262 260 262 263 262 261 262 262 263 263 264
280 278 280 278 274 275 277 278 279 276 277 281 281 282 283 283 282 281 280 280 280 281 280 280 279 279 279 280 281 280 280 281 281 280 280 280 280 280 279 279 279 279 279 279 278 276 276 276 277 277 277 278 279 277 274 273 272 272 272 269 267 267 268 268 267 267 266 264 263 263 261 262 262 262 263 263 262 261 260 261 264 263 262 262 263 265
280 281 279 278 278 276 280 280 281 283 282 283 284 285 283 282 282 281 281 281 281 282 281 281 280 279 278 278 279 280 280 281 281 280 279 279 280 280 280 280 279 279 279 278 276 274 274 276 276 276 276 277 277 276 274 273 272 271 269 268 266 266 268 268 267 267 266 263 263 262 261 262 262 262 262 262 262 262 262 262 263 266 268 267 266 267
Wind_Speed
2 7 7 10 10 11 12 13 7 4 3 5 2 1 6 7 9 3 2 2 1 4 10 11 12 13 12 9 7 5 4 4 5 6 5 5 4 4 4 4 3 3 2 1 2 3 4 4 3 3 3 4 6 6 6 7 8 7 6 7 9 6 7 6 6 6 7 7 7 8 10 10 8 8 8 9 9 9 9 9 9 10 9 10 10 10
3 7 12 12 2 7 10 6 4 3 2 4 3 5 7 5 10 1 2 3 0 3 5 1 6 12 12 5 5 5 4 6 6 6 5 6 5 4 5 5 4 3 3 2 3 3 3 3 3 3 4 5 6 6 6 7 7 7 7 9 7 6 8 8 8 8 9 8 7 8 8 8 8 8 8 9 8 8 8 10 10 10 10 11 11 10
7 11 10 3 6 5 3 5 5 8 6 3 6 4 5 8 5 5 1 2 2 3 10 1 8 11 12 5 6 6 7 3 3 3 2 3 4 3 3 3 4 4 4 4 4 3 3 3 4 4 5 4 5 5 6 6 7 7 7 8 7 7 8 8 8 9 10 9 9 9 9 9 9 9 9 9 9 9 10 10 11 10 10 10 10 11
6 10 10 7 7 8 4 5 7 4 4 6 5 5 9 1 2 5 4 2 3 4 2 3 6 10 9 5 6 5 6 4 2 2 2 2 2 3 3 3 4 4 5 5 4 4 3 4 4 4 4 4 4 4 5 6 7 6 7 7 8 8 9 10 10 12 12 13 13 12 12 11 10 9 9 10 10 10 11 11 11 10 10 11 11 11
9 4 3 9 9 9 8 6 8 7 8 8 8 9 10 6 8 9 1 1 3 3 1 5 8 12 12 10 6 6 4 4 4 3 3 3 1 1 1 2 3 5 5 5 6 5 4 5 4 4 3 3 4 5 5 4 4 5 7 7 8 9 9 9 11 12 11 12 13 11 11 10 11 9 9 9 10 10 10 10 11 10 11 11 10 11
9 4 6 9 7 7 6 6 9 8 9 5 11 13 12 8 9 5 1 2 5 5 5 4 6 7 2 5 6 5 4 5 4 4 5 5 5 5 6 6 4 2 2 3 4 4 4 4 4 4 4 4 4 5 4 4 4 5 6 7 8 8 8 8 8 7 7 8 9 9 9 9 8 9 8 9 8 8 9 9 8 10 10 10 10 10
3 4 6 8 8 7 8 8 7 10 7 6 5 11 14 12 6 3 5 3 5 6 2 3 8 5 2 3 4 4 5 5 4 6 6 7 7 7 7 7 6 6 5 2 3 4 4 4 4 4 4 4 5 4 3 4 5 6 6 7 7 7 7 7 7 7 7 8 8 9 9 9 9 10 8 7 6 7 7 6 8 8 9 10 10 10
5 5 4 3 7 7 6 8 7 12 6 7 2 2 5 6 8 9 8 8 5 4 1 2 4 7 7 8 5 3 4 6 7 9 9 9 9 9 8 7 7 6 5 5 5 4 3 3 3 5 4 4 4 4 4 4 5 6 7 8 8 7 7 7 7 7 7 9 9 10 11 9 9 10 9 8 7 7 6 7 7 7 8 9 9 9
7 7 8 7 7 6 11 6 9 12 8 1 2 2 5 7 6 6 6 5 2 2 7 6 5 4 7 5 4 3 4 8 12 12 13 12 11 11 10 8 7 6 6 6 6 6 6 5 4 4 4 4 4 3 4 4 5 6 7 8 9 9 8 7 8 8 8 9 9 10 9 11 9 9 8 7 6 6 6 8 7 7 7 8 9 9
2 2 7 9 9 10 3 4 5 12 11 2 5 7 6 6 5 4 4 4 2 4 9 9 10 7 10 7 6 4 5 11 10 13 13 13 13 12 11 10 8 7 6 5 5 5 5 4 3 3 4 5 4 3 4 5 5 6 7 9 11 10 8 8 9 10 10 9 9 10 10 13 9 8 7 6 7 6 5 7 7 6 6 6 7 8
1 1 2 3 8 1 6 5 4 4 4 10 6 8 6 6 4 3 1 2 1 7 11 11 14 10 8 7 10 7 8 5 5 6 9 11 11 11 10 11 9 9 8 7 6 5 5 3 4 4 5 5 5 4 4 5 5 6 8 9 11 10 8 8 9 10 10 9 9 10 10 11 11 9 8 8 7 6 6 7 6 6 6 6 6 6
2 2 3 1 3 4 5 7 6 2 2 6 4 5 6 3 2 2 1 2 5 7 4 3 5 10 11 4 8 6 5 2 5 10 15 15 15 14 12 11 10 10 9 8 7 7 7 6 5 5 6 6 6 5 5 5 5 6 7 9 13 10 9 8 8 9 10 9 10 10 10 10 9 8 7 8 8 7 7 6 6 5 5 5 5 5
4 7 2 2 3 5 6 7 4 3 2 2 5 7 7 3 2 5 3 5 9 7 2 2 5 3 15 11 2 2 4 4 3 0 12 15 15 15 13 12 10 9 9 9 8 8 8 8 8 8 7 7 7 6 7 6 6 7 8 9 13 10 8 8 8 10 10 10 9 9 9 9 8 8 9 8 8 6 6 5 6 6 6 5 6 6
4 4 3 5 3 6 9 10 6 3 8 6 10 10 8 5 5 5 5 2 4 1 1 1 3 7 3 9 15 12 4 4 3 2 2 12 16 16 14 12 10 9 9 9 8 8 8 8 8 8 8 7 7 7 7 7 6 6 7 8 12 10 8 8 9 10 10 10 9 8 8 8 7 8 8 7 7 6 6 5 6 5 5 5 5 5
6 4 10 12 7 11 12 13 11 6 13 12 4 10 7 6 4 6 5 6 3 1 3 2 3 4 6 4 5 4 2 3 2 2 2 4 10 12 12 11 10 10 9 8 8 8 8 8 8 8 7 7 7 8 7 6 6 7 8 9 11 11 9 9 9 9 10 9 9 8 7 7 7 7 7 7 6 6 6 5 5 5 4 5 4 4
12 6 4 5 4 12 15 1 5 8 5 3 1 3 2 8 1 5 2 1 1 1 3 3 5 1 5 3 2 2 2 2 2 2 2 7 8 10 10 12 12 10 10 9 9 9 9 8 8 7 7 7 7 8 6 7 6 7 8 9 10 11 10 9 9 9 9 9 8 8 8 8 8 7 7 7 6 6 6 5 5 5 4 4 4 3
3 7 4 2 1 8 6 4 3 4 9 8 6 8 7 5 2 4 2 3 1 1 9 6 5 5 4 2 4 3 4 4 3 4 4 7 10 11 11 11 11 10 10 10 10 9 10 9 8 7 8 7 7 7 8 8 7 8 9 10 11 10 9 9 9 9 9 9 9 9 8 8 7 7 7 7 7 6 5 5 4 5 4 3 3 3
3 2 1 4 6 1 2 3 3 4 1 10 7 9 4 1 4 2 6 2 2 7 5 5 10 7 7 6 4 4 4 6 6 6 7 8 10 13 13 12 12 12 11 10 10 9 10 10 10 9 8 8 9 9 8 9 7 7 7 10 12 11 12 9 9 9 9 10 9 9 8 7 7 7 7 7 6 5 5 5 4 4 4 4 3 2
4 6 4 2 3 3 1 3 3 3 5 3 3 3 8 6 5 5 1 6 4 6 5 6 6 9 10 8 4 7 9 10 11 9 9 11 12 14 13 14 11 10 10 11 12 11 11 11 11 10 10 9 8 8 8 8 7 7 7 8 9 11 11 11 8 8 7 7 6 6 7 7 6 6 6 5 5 5 5 5 4 4 3 3 2 2
3 6 1 1 2 3 2 7 11 9 2 1 2 4 3 3 4 7 5 1 1 7 0 3 5 7 10 9 13 13 13 13 13 10 12 14 15 14 14 15 15 15 14 12 12 12 11 11 12 12 11 11 10 9 8 9 8 9 8 9 9 9 9 9 10 9 9 7 7 7 7 6 6 6 6 5 5 5 5 5 4 4 3 3 2 2
4 1 6 4 3 4 7 10 14 15 12 6 7 9 4 2 3 3 1 3 3 4 4 7 6 3 7 8 12 13 11 12 15 15 12 12 14 15 15 16 16 15 13 13 12 12 11 11 11 10 9 9 8 8 8 8 9 9 8 9 9 11 11 10 10 9 8 7 8 8 8 7 6 6 5 6 5 5 5 5 4 3 3 2 2 1
2 6 8 6 5 10 5 2 5 2 9 12 16 16 16 10 7 6 8 5 2 3 5 4 10 1 3 2 3 4 2 6 11 12 12 13 13 14 13 15 15 13 13 12 11 10 10 11 10 10 9 8 8 8 10 9 9 9 10 9 10 10 10 11 10 9 9 8 8 8 8 8 6 6 5 6 5 5 5 4 3 3 2 3 2 1
5 3 2 6 6 7 2 3 1 4 4 4 4 7 12 9 10 7 11 5 1 3 3 1 4 5 3 2 1 1 1 1 2 5 7 8 10 10 10 11 12 13 12 12 10 10 10 10 9 10 11 11 12 11 12 10 10 10 11 10 10 10 11 10 10 9 8 8 8 9 8 7 6 6 6 6 5 5 4 3 3 2 2 2 2 2
6 3 5 1 3 1 2 2 1 2 1 4 8 3 3 12 11 8 3 5 8 5 4 2 5 3 2 1 1 1 1 2 1 3 7 4 6 7 9 11 11 10 9 8 8 9 9 8 8 9 12 13 12 12 12 11 10 10 10 11 10 11 12 11 10 9 9 8 9 9 8 7 7 7 6 6 5 5 4 3 3 2 2 2 2 2
6 6 6 4 1 1 2 3 4 2 3 8 8 9 8 3 6 1 4 0 4 10 7 7 14 3 4 2 2 0 1 1 3 4 4 6 5 7 10 10 10 10 9 11 11 11 11 11 12 12 12 13 12 11 12 12 12 12 11 11 11 11 11 10 9 9 9 10 10 9 8 8 7 7 6 6 5 5 5 4 3 2 2 2 2 2
7 3 12 11 13 10 10 13 16 14 15 3 3 4 10 16 12 6 7 6 8 5 14 9 10 2 2 1 2 2 1 2 3 4 4 5 5 7 8 10 11 10 11 13 12 12 15 15 12 12 13 12 12 12 12 12 12 12 12 12 11 11 10 9 9 10 10 10 9 9 9 8 7 7 7 6 5 6 4 4 3 3 2 2 2 1
3 1 10 16 14 16 6 3 5 12 7 10 12 11 15 15 13 10 2 5 13 5 11 16 10 4 5 6 5 6 2 5 6 5 6 7 7 6 7 8 9 11 13 15 16 14 11 9 15 16 15 13 13 13 12 13 13 12 12 12 11 9 9 10 10 10 10 10 9 9 9 8 7 7 7 6 5 5 4 3 3 3 3 2 2 1
2 6 15 13 13 10 5 2 4 15 16 18 14 14 15 15 15 16 14 14 7 4 14 11 9 12 9 10 9 9 6 6 4 2 4 6 7 8 8 8 9 9 9 10 10 12 15 16 14 14 15 15 14 13 12 12 12 13 12 12 10 10 10 8 10 10 10 10 9 8 8 7 7 7 6 5 5 4 4 3 3 3 3 2 2 2
5 10 11 10 16 10 2 3 3 7 13 14 18 18 17 16 14 20 21 12 14 12 13 10 13 12 11 16 11 9 10 10 9 10 9 5 6 7 8 9 11 13 13 14 15 15 14 13 14 16 15 14 14 14 14 12 11 10 9 10 10 10 11 10 11 11 10 9 9 8 8 7 6 6 6 6 5 5 4 4 3 3 3 2 2 1
4 10 6 7 12 10 10 5 4 8 3 4 13 17 18 18 20 19 18 14 15 15 16 6 12 15 7 10 13 12 8 7 5 4 5 7 9 10 10 10 12 13 14 16 17 16 16 15 12 12 13 13 14 15 13 12 11 11 11 12 11 11 10 10 11 11 10 10 9 8 7 7 6 7 6 6 5 5 4 4 4 3 3 3 2 2
9 8 10 5 7 11 10 5 4 3 4 5 8 8 14 12 14 20 17 17 15 16 11 8 6 10 4 8 8 3 4 3 4 7 8 7 8 10 10 11 12 13 14 15 14 14 13 12 12 12 12 13 15 15 13 12 12 12 14 13 12 12 11 11 11 11 10 11 8 8 8 7 7 7 7 6 5 4 4 4 3 3 3 3 2 2
7 3 4 5 9 9 4 8 4 0 1 5 10 15 9 11 11 12 10 11 8 13 11 7 10 11 6 8 5 5 6 8 10 9 7 6 8 9 10 11 12 12 12 13 13 12 10 11 12 14 15 15 15 16 14 14 14 13 14 13 12 11 10 11 11 11 11 10 8 8 8 7 7 7 6 6 5 5 4 4 4 3 3 3 3 2
8 6 6 7 10 10 1 5 8 4 1 6 22 18 12 16 12 8 8 7 14 13 11 12 16 6 5 8 8 6 8 9 7 7 6 5 7 9 10 11 10 9 11 11 10 11 12 14 15 15 14 14 15 16 16 15 11 12 14 14 13 9 10 11 11 10 10 9 9 9 8 7 7 6 6 5 5 5 4 4 4 4 4 4 3 2
4 9 9 6 8 3 1 4 6 7 10 14 3 2 20 19 18 14 15 14 14 12 10 8 7 2 7 9 11 9 10 11 9 7 5 7 9 9 8 7 7 8 8 8 10 12 12 10 10 11 14 14 14 15 15 15 17 17 14 11 9 11 10 11 10 10 9 8 9 8 8 8 6 6 6 5 5 5 5 4 4 4 3 3 3 3
11 9 8 3 4 3 3 6 6 11 17 1 4 5 4 10 13 16 15 18 19 16 10 4 4 8 9 12 12 10 5 4 4 3 6 4 5 7 9 9 9 8 8 8 9 10 11 13 13 13 14 15 15 14 10 12 12 8 7 9 10 10 10 10 10 9 9 9 8 7 7 8 7 6 6 5 5 5 5 5 4 4 4 4 4 4
9 11 4 2 4 4 3 7 6 8 2 2 2 3 1 3 5 11 13 14 13 16 15 14 11 6 6 7 3 5 4 2 2 2 4 4 5 6 8 8 9 8 9 9 10 11 11 12 13 14 14 11 9 9 10 11 10 9 9 8 9 9 9 9 9 9 8 8 8 9 9 8 7 6 6 6 6 5 5 5 5 5 4 3 3 3
5 2 3 5 3 6 4 10 6 7 10 5 5 5 8 8 10 11 10 12 13 10 11 12 11 6 5 4 5 4 3 2 2 6 6 7 8 8 9 7 7 9 9 8 8 7 7 7 8 8 6 7 9 9 10 9 8 8 8 8 7 7 7 8 8 9 10 9 10 10 9 9 8 7 7 6 6 6 6 6 5 5 4 4 4 4
1 6 2 4 4 5 4 3 1 3 10 7 3 4 7 2 5 4 2 4 1 5 8 10 10 9 6 4 5 5 4 1 5 6 7 9 9 10 5 1 2 3 4 4 4 3 4 5 4 4 6 7 8 9 8 8 9 9 8 9 9 8 9 8 10 10 9 11 10 10 9 9 8 8 7 7 7 7 6 5 4 5 5 4 4 4
2 1 1 5 1 4 5 7 5 6 6 1 1 1 1 1 7 5 3 5 2 8 10 13 13 6 9 10 6 6 4 5 7 5 4 5 6 6 7 6 4 4 4 5 6 6 6 6 6 6 6 7 8 9 8 9 10 9 8 9 9 9 9 10 11 11 12 11 11 10 9 7 8 8 7 7 7 6 6 6 5 4 4 3 3 3
3 3 4 4 5 5 6 5 8 3 4 1 2 0 1 3 3 4 2 4 5 8 5 6 8 6 7 10 10 8 6 6 8 2 5 5 6 7 8 7 6 4 4 4 3 4 6 7 7 6 8 9 9 8 9 8 9 11 11 9 8 8 10 12 13 13 10 8 9 8 7 7 8 8 9 8 6 5 5 5 4 5 4 4 3 3
4 2 4 10 9 9 11 8 3 5 2 1 4 3 3 2 1 7 7 2 3 5 6 7 6 6 9 9 8 6 10 3 3 4 3 5 5 3 2 1 2 2 4 4 5 6 6 6 7 8 9 7 7 8 9 7 8 9 9 9 8 11 13 13 10 8 9 8 8 8 8 7 8 11 7 6 6 6 5 5 5 5 4 4 3 3
1 3 1 1 7 9 8 7 8 5 1 4 2 4 3 4 5 7 1 1 9 7 6 6 5 6 9 11 9 8 3 5 3 4 5 6 6 5 6 4 2 2 3 2 4 5 4 4 4 3 3 5 7 8 7 7 11 9 9 8 11 14 13 9 8 8 7 7 8 8 8 9 7 7 7 6 6 6 6 5 4 4 4 3 3 3
9 8 7 8 3 2 1 8 2 9 2 7 10 5 4 5 1 6 4 2 1 7 9 6 6 7 9 8 8 5 5 4 4 5 5 5 4 5 7 7 6 6 6 5 4 5 5 5 6 7 7 5 7 8 8 11 12 10 11 10 16 13 8 8 7 8 7 9 11 13 13 12 13 9 6 6 6 6 6 5 4 4 3 3 3 3
3 5 3 5 5 5 8 8 7 1 7 11 15 9 7 5 3 8 8 5 1 3 5 5 5 7 9 7 9 5 4 4 2 2 3 3 3 2 3 3 3 3 3 3 2 6 5 5 4 5 5 5 5 6 7 11 12 11 12 16 13 6 5 7 8 9 11 12 12 13 12 12 10 7 6 7 6 6 5 5 5 4 4 4 3 3
8 7 1 4 3 6 3 1 1 1 9 9 3 4 4 5 4 8 6 7 8 5 6 5 8 8 9 6 4 7 6 6 6 6 7 8 6 6 6 7 7 7 6 7 6 5 5 8 7 5 4 5 6 6 9 10 12 12 14 15 7 9 10 11 11 12 12 13 14 14 8 7 7 7 6 6 7 7 6 5 5 4 4 4 4 3
5 2 0 2 2 3 3 2 2 2 2 5 3 3 3 5 2 2 5 5 6 5 9 8 7 6 7 5 6 3 6 7 7 5 6 5 6 5 3 1 3 2 2 2 2 8 6 4 3 4 7 5 6 7 8 8 10 13 18 7 7 9 11 12 12 12 13 12 11 9 8 9 6 6 6 6 6 6 5 6 6 5 4 4 4 4
3 3 1 4 1 4 3 5 2 1 0 5 4 3 2 2 3 3 2 4 5 5 6 3 3 6 7 8 8 7 7 6 6 6 7 5 6 6 7 9 7 8 9 10 10 7 6 7 7 9 9 10 8 8 8 10 10 13 4 5 7 9 10 11 13 13 12 12 8 7 7 9 8 7 6 6 5 5 5 5 5 5 4 4 4 4
2 6 2 2 2 3 1 4 2 2 3 3 3 4 4 4 3 3 0 1 1 2 2 4 5 5 6 5 9 7 7 5 6 6 6 7 7 6 6 8 8 6 8 8 5 8 6 8 10 11 10 11 8 9 9 10 12 12 8 5 8 10 10 11 12 12 15 15 8 8 8 8 10 9 7 7 8 7 6 5 6 6 6 6 5 5
2 9 3 4 4 2 3 1 3 1 2 5 5 7 4 3 5 4 3 2 2 5 3 2 2 3 7 6 6 6 7 7 8 8 7 6 6 6 7 7 7 7 6 6 7 8 10 10 11 12 11 12 7 9 11 13 12 10 10 8 9 10 13 12 12 10 11 9 6 7 7 7 7 8 7 7 7 6 6 6 7 6 4 4 2 3
3 4 3 4 2 3 5 6 8 4 1 5 7 10 9 7 5 4 3 4 4 5 4 6 5 2 2 1 4 7 7 8 8 7 10 8 8 8 6 7 5 6 6 5 3 7 8 8 11 11 12 11 5 8 11 12 11 9 10 8 10 11 12 11 9 9 9 7 7 6 7 7 7 6 6 5 6 5 4 6 8 6 5 4 8 13
8 6 6 4 4 2 4 6 8 3 2 4 8 8 7 6 7 7 7 8 8 7 6 7 7 4 5 8 6 9 11 9 10 8 8 6 8 9 9 11 9 9 9 5 6 7 9 10 10 9 10 10 7 9 9 9 9 9 10 11 11 12 11 10 8 7 6 7 8 8 7 6 5 5 5 4 4 4 4 3 5 13 15 13 10 11
Wind_Direction
344 194 200 214 221 196 200 205 230 66 88 86 107 210 251 264 269 102 207 71 339 278 251 258 266 268 264 196 166 154 149 169 177 186 189 186 177 179 170 164 145 125 112 76 64 52 42 32 21 18 34 54 61 46 49 63 61 60 69 76 70 58 55 72 73 66 68 68 70 64 60 65 57 54 54 52 47 47 44 41 44 43 43 40 40 39
225 221 228 229 116 190 203 194 117 123 117 226 233 235 253 220 266 188 144 87 129 247 275 183 265 264 265 141 139 149 179 208 199 200 199 184 187 175 172 158 156 131 132 143 105 77 59 50 34 46 49 42 67 48 55 63 67 70 71 76 76 70 71 68 74 82 73 63 61 75 66 67 60 55 53 54 47 45 44 42 43 44 42 42 43 38
202 218 235 153 93 99 101 172 195 218 206 170 245 240 261 256 269 264 188 167 203 170 264 332 268 267 266 129 143 180 194 194 213 243 231 193 186 179 164 151 145 154 146 124 104 88 88 61 49 55 51 52 55 58 59 64 75 74 73 74 78 77 79 73 77 82 82 80 77 84 84 81 80 65 61 61 55 49 50 46 43 42 45 46 46 43
226 236 236 112 137 135 105 172 187 186 222 222 205 226 239 237 184 262 119 119 170 233 334 18 298 277 262 142 160 161 189 180 183 216 210 253 213 184 166 158 167 157 153 151 139 124 97 80 69 61 58 54 60 66 66 62 73 73 77 84 89 88 86 86 84 87 89 91 92 89 90 87 84 85 74 68 58 49 47 47 43 42 41 44 49 44
215 62 354 151 162 175 169 165 176 192 222 213 224 232 248 205 224 242 308 164 123 226 315 287 280 274 254 232 182 151 162 167 174 175 198 199 227 154 115 183 206 176 169 152 146 129 113 95 72 63 57 62 71 65 55 51 66 79 87 90 93 90 91 96 100 100 105 105 102 103 102 100 96 84 76 69 56 48 45 44 36 34 37 40 43 43
243 87 127 144 166 181 143 177 195 194 238 207 217 227 237 235 245 198 89 271 258 249 172 213 285 260 113 241 246 130 170 197 161 201 199 191 190 193 195 192 182 200 204 159 132 112 94 92 92 84 68 63 66 60 42 40 63 85 93 93 93 93 93 95 97 109 115 115 117 120 114 103 91 79 65 61 59 51 47 47 40 37 37 41 44 43
255 113 161 159 167 175 199 212 189 195 235 231 238 202 228 240 239 205 183 161 248 256 77 296 232 267 152 246 193 171 192 194 162 216 209 197 197 197 198 185 185 178 167 134 108 121 126 113 111 94 77 67 72 65 60 66 74 82 84 86 87 89 89 86 92 95 102 97 91 90 89 92 95 98 82 79 77 75 67 60 52 48 40 38 44 43
138 159 137 145 150 172 185 222 181 188 211 234 74 180 200 205 204 214 201 209 259 41 100 188 258 269 279 270 114 135 208 217 208 206 208 208 200 196 193 186 182 173 164 153 151 146 130 130 121 113 91 76 78 81 82 81 81 84 88 90 89 89 90 90 98 91 90 98 97 96 92 90 90 91 100 93 83 79 77 71 60 57 49 42 42 43
173 166 182 170 192 183 215 225 136 188 199 302 46 206 166 191 199 171 198 216 262 323 257 181 170 250 245 231 115 171 258 227 225 203 199 204 197 193 190 183 177 171 165 165 163 160 152 143 130 120 111 101 106 97 98 98 98 97 97 96 97 95 92 91 94 98 91 94 99 100 103 98 91 95 96 94 89 83 77 76 65 62 57 53 47 44
315 216 203 193 176 213 137 17 171 172 213 115 120 87 82 80 74 166 196 200 183 220 242 216 175 242 264 206 215 148 245 255 229 192 191 193 189 187 184 176 173 167 168 179 171 156 149 147 136 117 124 122 107 101 108 112 112 109 107 104 101 96 96 99 97 95 94 96 101 99 101 104 105 105 103 98 93 88 81 74 68 62 58 52 50 46
352 211 322 204 214 126 100 53 15 12 33 128 160 106 96 85 98 95 80 171 182 240 239 225 181 214 279 178 214 199 219 221 121 145 176 178 181 185 181 175 173 174 177 178 173 166 159 146 148 159 144 126 121 119 124 118 118 115 110 109 100 98 100 99 100 102 98 94 94 98 100 103 109 109 108 105 93 89 84 78 70 66 61 56 52 48
156 91 181 219 59 108 102 92 42 49 152 161 158 146 125 93 147 168 137 208 232 254 131 35 212 204 230 214 218 208 79 129 171 177 178 178 181 180 177 175 174 178 179 174 172 174 166 165 169 166 148 145 138 133 129 127 122 115 110 112 105 100 102 103 105 101 95 92 93 96 101 102 105 109 105 100 95 87 84 81 79 77 71 62 58 51
234 207 126 99 266 154 154 107 79 94 218 220 156 161 188 183 162 211 166 218 212 239 101 75 137 205 238 243 331 3 206 160 204 102 183 175 176 177 175 171 174 178 176 176 179 174 178 177 171 171 159 151 154 149 144 138 130 120 116 118 111 108 110 107 106 100 99 99 99 103 103 101 100 97 97 96 96 90 86 79 74 69 66 58 54 44
237 104 172 183 118 240 178 170 144 183 194 197 185 180 190 199 204 248 196 301 307 197 49 82 165 254 338 252 242 250 97 71 73 61 354 179 173 173 168 169 174 176 179 182 182 182 182 178 175 171 166 163 157 155 149 145 137 129 123 122 113 115 114 112 108 106 104 101 104 103 104 104 103 100 98 95 92 87 82 80 78 76 74 71 63 54
232 221 212 151 227 155 202 210 178 159 164 199 207 188 211 197 175 213 186 224 243 79 102 251 166 232 167 201 23 18 19 45 58 42 4 166 165 161 159 161 167 175 186 184 186 186 182 180 176 173 170 166 163 158 153 147 142 133 125 126 123 122 123 120 117 114 109 107 104 103 103 104 106 104 100 95 95 96 96 91 90 82 78 76 69 62
225 262 52 168 8 148 190 187 84 100 131 153 296 360 304 230 275 262 16 308 78 174 177 178 230 210 207 100 75 68 99 111 109 95 127 163 147 143 155 174 182 185 184 183 187 187 187 182 178 174 175 171 165 162 157 154 150 143 135 132 129 129 131 128 123 118 115 111 109 107 104 101 99 101 103 103 100 97 97 98 94 90 84 86 88 82
84 236 89 124 92 187 177 124 165 167 202 171 146 208 202 358 121 100 129 72 34 319 254 152 244 234 313 216 114 143 116 159 143 144 163 161 162 165 178 183 185 186 182 181 188 188 184 181 184 185 180 175 170 169 169 165 164 155 145 140 135 132 132 130 125 121 119 117 114 109 108 110 111 110 108 109 111 109 107 105 97 92 91 89 80 83
184 169 84 148 196 288 31 304 67 36 73 106 215 203 69 228 350 204 248 119 219 250 266 148 214 215 144 241 120 155 178 185 190 176 173 170 170 181 190 188 189 187 183 182 186 188 186 184 185 185 186 182 179 171 167 167 166 160 152 148 141 142 139 137 131 127 126 124 119 120 120 115 112 112 116 119 122 118 114 109 104 106 95 78 79 82
193 253 137 316 40 68 346 187 133 36 336 237 178 118 167 197 208 184 249 243 194 235 264 200 224 239 196 206 137 202 195 193 196 176 170 182 188 194 192 193 187 177 175 186 192 188 187 187 186 187 186 182 176 173 170 167 168 166 159 153 148 145 144 140 135 131 128 129 126 128 125 125 126 126 122 118 114 113 109 103 99 98 97 99 82 70
211 229 159 82 124 117 171 188 197 180 206 356 128 185 1 330 232 161 208 319 194 256 155 250 134 239 187 213 173 194 196 191 178 169 196 194 192 192 192 188 186 187 192 190 190 191 186 184 186 187 184 178 176 177 176 170 172 173 163 155 149 141 141 139 138 139 137 135 131 129 132 137 133 127 123 123 125 116 108 105 105 102 97 87 80 73
195 70 251 100 309 140 187 200 212 171 173 164 187 189 177 215 349 327 334 205 213 240 227 280 260 217 180 193 180 191 192 182 173 186 188 193 198 198 193 186 186 190 188 189 188 183 178 180 187 185 178 175 175 177 177 177 179 173 167 166 159 153 152 150 148 147 143 141 140 144 147 143 137 131 125 123 120 112 105 102 95 89 94 99 83 74
188 175 218 122 168 211 223 41 351 236 198 186 178 189 184 161 173 186 232 107 223 210 240 177 257 110 166 61 223 198 59 154 181 173 182 195 196 191 191 194 189 187 190 187 181 172 173 180 182 171 165 169 177 183 185 182 178 176 178 173 167 163 163 159 159 156 151 151 152 156 149 143 137 134 129 129 122 108 105 99 98 107 128 121 112 103
177 87 115 194 209 211 323 355 301 319 324 300 274 215 189 196 169 187 228 178 120 240 43 294 336 254 79 119 129 51 53 45 172 186 189 191 194 191 194 195 194 196 188 179 172 173 178 180 179 175 174 179 187 188 187 184 185 182 181 177 177 173 171 168 164 159 159 158 159 157 150 144 139 139 142 130 115 106 108 116 129 146 151 140 130 114
96 173 184 213 44 260 209 210 232 280 300 268 251 254 199 207 192 207 235 140 193 153 187 206 247 267 127 123 67 89 351 336 306 219 215 197 188 188 186 184 184 179 173 163 167 170 181 182 176 173 179 185 191 190 187 185 186 185 185 183 179 181 174 170 168 165 164 164 161 155 149 145 143 147 141 122 115 128 143 157 157 154 145 131 105 94
161 211 179 156 193 178 206 187 220 148 202 224 213 189 214 238 196 77 95 122 247 204 170 168 244 172 187 145 132 139 148 207 216 210 217 214 188 191 193 191 189 181 165 169 176 181 180 183 188 190 188 188 187 185 186 187 188 188 189 185 184 185 180 175 172 171 172 168 160 158 152 149 153 147 136 128 140 156 161 170 160 144 128 113 100 72
195 137 168 193 199 197 199 204 207 196 206 147 347 151 194 202 168 149 211 183 233 175 168 212 239 85 90 117 215 172 225 255 222 203 198 227 216 190 191 186 182 181 186 180 176 177 193 196 190 187 188 186 187 186 185 188 189 191 191 191 186 185 180 177 171 177 174 170 164 161 157 158 156 147 140 146 159 169 171 163 151 135 113 96 99 91
180 198 213 213 208 214 231 17 49 82 94 201 196 175 196 202 196 197 223 203 215 135 197 219 219 167 198 191 210 188 162 208 210 179 202 210 212 199 186 188 188 189 188 186 186 191 183 181 195 197 189 185 184 185 187 187 189 191 191 189 187 186 178 174 176 179 176 173 170 164 164 165 158 147 151 164 170 168 167 152 134 128 118 113 112 112
154 207 218 229 246 247 53 241 275 162 194 212 197 202 196 192 190 193 200 216 119 134 247 223 174 236 199 188 196 191 178 224 230 180 209 217 206 190 185 182 190 193 196 192 190 187 192 198 195 189 190 186 184 184 187 189 191 191 189 187 185 187 182 176 178 178 179 175 176 172 167 163 150 150 159 163 162 165 157 145 139 131 128 132 148 133
178 218 223 202 242 250 35 283 253 217 204 204 206 204 197 192 187 199 216 207 155 200 230 121 173 210 203 179 191 188 182 198 198 210 204 182 160 163 168 177 189 197 200 200 204 204 204 198 197 195 190 186 181 183 186 188 192 190 189 191 190 185 186 175 177 181 179 181 182 177 164 151 146 150 156 161 163 165 159 149 142 142 140 145 142 127
133 239 204 183 236 233 228 193 198 215 200 243 213 208 206 194 197 202 214 206 198 227 234 197 195 222 199 157 179 200 185 179 182 119 118 168 184 173 177 187 195 200 200 202 205 204 203 203 195 189 187 183 183 185 186 189 189 187 189 196 192 184 182 171 184 180 181 186 187 170 160 153 150 161 162 166 172 168 155 152 155 156 152 150 138 139
175 226 167 157 219 232 211 165 167 182 202 230 238 224 216 208 198 204 212 214 222 239 230 122 214 245 154 142 170 92 115 100 106 181 187 176 160 168 179 192 200 205 206 208 208 207 204 197 189 181 181 188 190 190 184 189 187 192 198 197 193 186 180 175 181 182 182 190 181 164 157 156 163 162 170 172 169 159 155 159 163 160 152 149 146 167
195 238 65 158 220 229 187 186 199 88 17 260 260 234 163 155 173 211 210 209 181 222 234 244 250 246 140 162 104 134 155 174 194 190 174 179 175 171 187 200 206 208 207 208 209 202 193 192 193 193 194 194 195 193 190 191 193 193 199 197 193 184 168 176 181 182 186 187 168 167 165 166 161 166 168 166 167 160 157 155 165 168 160 157 165 180
189 162 166 175 213 217 87 189 185 125 142 283 240 223 169 194 199 181 217 203 209 202 206 216 235 239 163 155 148 180 187 197 199 168 183 181 181 186 196 203 208 209 209 209 200 196 197 198 199 197 195 194 194 195 197 192 184 196 200 194 190 161 166 180 180 181 185 178 171 171 170 165 165 166 166 172 162 155 151 162 176 173 167 174 167 177
158 183 204 179 220 173 41 145 143 159 209 229 347 192 184 196 194 192 210 207 217 202 217 227 246 146 139 160 173 182 192 206 194 190 167 172 177 196 210 209 206 207 208 204 204 203 203 199 196 196 195 194 195 196 199 192 196 202 193 179 154 165 176 177 178 180 181 169 175 171 169 167 162 167 169 163 159 157 164 173 191 178 173 162 178 189
170 182 206 156 179 164 138 139 169 209 228 69 281 346 326 199 183 203 221 218 218 215 225 277 181 182 185 173 185 197 189 66 42 159 197 208 188 178 190 202 206 197 194 195 202 204 201 200 199 200 202 204 203 200 187 190 203 187 164 162 168 174 169 177 172 178 175 172 175 168 169 168 171 170 162 161 162 166 175 184 185 178 183 180 186 184
171 180 141 158 122 62 140 181 192 220 51 135 69 10 67 74 203 206 234 240 231 218 211 220 221 186 144 165 69 47 89 71 17 235 224 207 195 182 186 202 196 184 192 198 194 200 197 196 198 198 204 202 191 193 192 198 188 175 176 160 168 168 173 171 173 176 167 171 176 176 176 170 171 167 164 163 168 172 185 190 191 189 181 177 183 185
185 111 190 173 183 167 192 200 247 356 313 203 134 188 170 160 167 174 212 233 218 194 196 208 220 165 138 91 105 96 78 73 288 267 198 198 189 205 202 198 174 185 194 196 194 196 194 190 193 198 182 178 190 191 196 186 164 164 150 160 173 165 173 170 176 179 178 179 179 179 177 175 169 168 166 167 169 182 190 187 190 191 177 179 188 185
283 194 223 165 209 136 140 187 259 240 239 259 146 162 181 346 151 162 172 260 50 197 177 186 212 207 139 105 123 121 134 176 261 257 176 188 184 199 205 115 128 161 162 142 151 147 166 179 171 168 179 185 191 194 181 162 161 160 160 171 167 169 176 177 188 181 175 186 181 178 174 177 168 163 168 168 183 183 189 188 190 184 186 185 179 190
67 91 357 203 213 132 210 223 231 231 245 59 147 141 49 74 119 114 96 259 174 182 184 184 207 196 151 148 149 156 149 221 241 244 126 166 183 187 185 205 179 168 164 171 164 162 163 166 167 167 172 176 186 187 164 155 154 152 170 171 171 174 174 190 192 182 186 189 177 175 172 167 167 170 165 174 184 175 182 184 190 178 175 186 177 186
167 196 174 218 204 200 208 231 232 213 270 9 227 208 191 177 211 97 243 266 155 201 175 173 200 177 149 154 153 171 174 216 232 221 139 170 176 173 188 187 183 189 204 168 141 135 144 139 135 153 173 187 190 159 154 152 163 176 175 172 162 174 192 199 197 192 182 165 160 167 164 169 166 170 168 173 170 171 183 178 174 181 183 177 183 180
183 201 207 213 216 215 217 235 267 273 234 153 167 170 122 231 161 173 223 119 161 168 175 185 203 155 148 148 169 173 220 207 59 81 116 117 118 173 205 174 166 179 180 166 158 143 149 167 175 179 184 185 161 153 160 159 157 175 182 165 173 197 205 203 188 164 166 162 160 166 166 168 175 164 171 167 164 170 176 187 185 171 178 178 184 176
34 107 333 238 230 224 219 226 233 270 191 137 37 102 213 129 180 195 144 321 140 181 201 201 161 158 162 175 187 209 106 89 94 79 136 173 176 164 158 160 135 109 63 76 139 163 156 168 188 175 173 170 154 154 159 160 174 184 172 172 198 209 208 184 162 159 160 162 171 166 162 166 165 164 154 151 158 171 181 185 174 173 175 188 173 178
178 158 199 195 198 46 143 238 209 241 151 124 120 66 281 166 253 101 114 56 89 177 160 201 187 181 176 192 207 181 103 148 155 166 166 172 167 165 164 172 182 180 170 154 166 202 172 168 192 205 195 160 155 165 165 173 184 189 183 191 212 209 180 158 157 162 165 163 167 171 172 164 160 161 152 159 175 167 174 163 169 177 173 177 176 190
189 125 212 213 184 184 191 211 216 286 129 175 148 171 184 188 152 146 133 162 164 166 179 172 210 190 194 182 184 171 136 154 225 171 167 189 205 143 147 177 166 161 175 198 170 170 178 197 202 204 181 160 166 172 172 179 191 190 191 212 217 162 141 156 160 149 167 179 178 159 169 169 159 149 161 165 166 176 171 174 169 176 193 182 191 199
205 191 193 199 165 181 213 216 36 298 150 175 78 0 114 140 139 164 146 158 152 209 192 188 190 191 205 191 151 152 162 200 200 192 183 197 194 196 188 190 187 190 186 183 188 169 183 200 202 200 186 179 175 182 184 195 193 195 205 223 177 169 171 166 162 170 178 178 174 173 161 152 169 164 165 166 167 172 179 171 170 189 190 181 200 203
13 103 19 103 260 88 36 114 46 48 192 175 79 15 92 127 102 104 148 126 214 163 172 183 183 169 183 177 136 172 197 195 191 205 225 226 206 213 197 136 210 201 183 150 172 185 196 199 199 197 210 202 185 191 194 199 200 198 219 190 164 171 152 159 166 178 189 184 173 172 151 158 161 164 169 173 184 190 188 175 180 198 183 186 196 193
210 133 150 191 286 138 231 110 122 109 322 221 188 104 31 47 153 161 232 172 162 157 186 293 139 170 167 164 190 185 197 186 191 205 205 213 212 210 194 203 204 190 179 192 208 172 169 180 205 217 217 221 194 194 198 202 212 221 213 150 156 150 163 170 177 184 173 171 171 162 164 171 174 171 172 182 187 195 196 191 187 189 192 195 198 197
251 177 100 197 49 199 242 121 183 297 267 286 239 200 216 170 172 190 225 26 69 126 165 129 107 110 140 176 205 196 210 182 188 213 203 211 215 207 206 211 211 194 211 207 171 179 179 188 207 218 216 226 211 188 193 201 216 221 208 160 153 160 164 176 185 186 181 173 164 172 177 184 176 173 177 185 185 186 190 195 194 193 197 192 191 189
101 129 198 174 153 114 49 303 258 274 186 194 200 245 232 166 169 182 172 128 102 127 141 153 246 165 179 195 173 188 206 212 203 211 207 210 209 218 220 216 214 220 207 180 194 184 196 201 209 218 215 227 203 183 201 213 219 215 201 180 149 164 169 186 194 196 180 167 166 180 178 185 172 189 181 176 187 208 198 184 187 198 214 215 198 206
132 202 163 117 116 199 182 177 173 126 213 191 208 215 214 188 164 144 143 175 192 181 169 167 208 200 231 251 173 182 199 220 211 203 217 216 209 211 218 223 221 221 229 219 178 199 216 217 213 217 222 231 196 198 205 214 214 205 189 172 164 166 181 189 172 182 182 177 184 177 171 190 188 188 186 177 185 188 227 236 219 208 201 217 214 225
197 184 153 181 196 196 197 161 186 151 160 202 198 209 180 151 161 177 195 199 205 198 175 172 186 201 222 230 214 193 208 209 214 185 220 233 226 218 212 205 209 219 228 200 205 219 216 222 221 229 237 236 214 211 212 214 211 196 184 171 164 179 190 179 179 190 185 172 196 186 179 176 176 177 184 184 180 183 195 205 223 227 227 225 225 228